STARLINK-32510, 62040

Orbit data source: Space-Track

STARLINK-32510, 62040 is a payload satellite owned by SpaceX/Seattle (US) in LEO that was launched on Thu, 21 Nov 2024 UTC via an FALCON 9 launch vehicle from the Air Force Eastern Test Range (AFETR). Payload-class satellites include a variety of spacecraft equipped with specific instruments for various scientific and technological missions. These include communications satellites like Starlink; space stations such as the ISS; scientific satellites like the Hubble; Earth observation satellites from companies like Planet Labs, Umbra, and HawkEye 360; GPS; miniature CubeSats for education and research; and military/defense satellites.

Loading next visibility...
Identifier
62040, 2024-216J
Orbit
LEO
Country
Flag of USUS
Related business
Manufacturer
SpaceX/Seattle
Mission
Operational Commercial Communications
Bus & Motor
STARLINK V2M, Unknown motor
Mass
730 kg wet, ~700 kg dry
Launch date (UTC)
2024-11-21 (1 year ago)
Launch vehicle
FALCON 9
Launch site
Air Force Eastern Test Range (AFETR)
Object type
Payload
Rocket body
Debris
Shape & HBR
Box + 2 Pan, 17.7 m
Radar Cross Section
33.884 m², Large (>1 m²)

Expand to show TLE details & history
Last TLE update: 10 hours ago

TLE from 10 hours ago
0 STARLINK-32510
1 62040U 24216J   25310.79645562  .00023369  00000-0  85553-3 0  9994
2 62040  43.0002 237.8922 0000990 206.1985 153.8817 15.27600147 54998
Epoch: 2025-11-06T19:06Z
TLE epoch observation values (Epoch: 2025-11-06T19:06:53.765Z)
Latitude
-0°
Longitude
-95.08145°
Altitude
483.374 km
Speed
7.625 km/s
True Right ascension
15h 51m 34s
True Declination
0° 00' 00"
Sunlit
Object was in daylight at epoch
Visualization orbit readout
Latitude
Unknown
Longitude
Unknown
Altitude
Unknown
Speed
Unknown
Apparent Right ascension
Unknown
Apparent Declination
Unknown
Sunlit
N/A
Visualization observer readout
Local Sidereal Time
01:25:37
Azimuth
Unknown
Elevation
Unknown
Doppler factor
Unknown
Orbital elements
Apogee altitude
485.613 km
Perigee altitude
484.254 km
Semi-major axis
6,863.071 km
Eccentricity
0.0001
Inclination
43.0002°
RAAN
237.8922°
Arg. of periapsis
206.1985°
True anomaly
153.88669°
Mean anomaly
153.8817°
Eccentric anomaly
153.8842°
Mean motion
3.81738 °/min
Orbital period
94.31 mins
BSTAR
0.00085553
Loading maneuver chart data...
Computing Atmospheric mass density...
Loading historical data...
Loading historical data...
Loading historical data...
Loading historical data...
Loading historical data...
Loading historical data...
Loading historical data...

Documentation

Showing up to 5 results
|